Location: Malvern Link
(52.1333°N, 2.3000°W)
Time: 19:16:09
(UTC+00:00)

Resurs 01 Rocket - Pass Details

Date: 18 September 2020
Orbit: 633 x 645 km, 98.0° (Epoch: 22 October)

Event Time Altitude Azimuth Distance (km) Brightness Sun altitude
Exits shadow 20:56:51 42° 208° (SSW) 921 2.3 -23.7°
Maximum altitude 20:58:01 56° 259° (W) 769 2.1 -23.9°
Drops below altitude 10° 21:02:26 10° 338° (NNW) 2,054 5.0 -24.4°
Sets 21:04:41 0° 343° (NNW) 2,967 5.9 -24.7°
